SCP
0 0 0 0 0 0 0 0 0 0 0 0 0 0 0 0 0 0 0 0 0 0 0 0 0 0 0 0 0 0 0 0 0 0 0 0 0 0 0 0 0 0 0
0 0 0 0 0 0 0 0 0 0 0 0 0 0 0 0 0 0 0 0 0 0 0 0 0 0 0 0 0 0 0 0 0 0 0 0 0 0 0 0 0 0 0
0 0 0 0 0 0 0 0 0 0 0 0 0 0 0 0 0 0 0 0 0 0 0 0 0 0 0 0 0 0 0 0 0 0 0 0 0 0 0 0 0 0 0
0 0 0 0 0 0 0 0 0 0 0 0 0 0 0 0 0 0 0 0 0 0 0 0 0 0 0 0 0 0 0 0 0 0 0 0 0 0 0 0 0 0 0
0 0 0 0 0 0 0 0 0 0 0 0 0 0 0 0 0 0 0 0 0 0 0 0 0 0 0 0 0 0 0 0 0 0 0 0 0 0 0 0 0 0 0
0 0 0 0 0 0 0 0 0 0 0 0 0 0 0 0 0 0 0 0 0 0 0 0 0 0 0 0 0 0 0 0 0 0 0 0 0 0 0 0 0 0 0
0 0 0 0 0 0 0 0 0 0 0 0 0 0 0 0 0 0 0 0 0 0 0 0 0 0 0 0 0 0 0 0 0 0 0 0 0 0 0 0 0 0 0
0 0 0 0 0 0 0 0 0 0 0 0 0 0 0 0 0 0 0 0 0 0 0 0 0 0 0 0 0 0 0 0 0 0 0 0 0 0 0 0 0 0 0
0 0 0 0 0 0 0 0 0 0 0 0 0 0 0 0 0 0 0 0 0 0 0 0 0 0 0 0 0 0 0 0 0 0 0 0 0 0 0 0 0 0 0
0 0 0 0 0 0 0 0 0 0 0 0 0 0 0 0 0 0 0 0 0 0 0 0 0 0 0 0 0 0 0 0 0 0 0 0 0 0 0 0 0 0 0
0 0 0 0 0 0 0 0 0 0 0 0 0 0 0 0 0 0 0 0 0 0 0 0 0 0 0 0 0 0 0 0 0 0 0 0 0 0 0 0 0 0 0
0 0 0 0 0 0 0 0 0 0 0 0 0 0 0 0 0 0 0 0 0 0 0 0 0 0 0 0 0 0 0 0 0 0 0 0 0 0 0 0 0 0 0
0 0 0 0 0 0 0 0 0 0 0 0 0 0 0 0 0 0 0 0 0 0 0 0 0 0 0 0 0 0 0 0 0 0 0 0 0 0 0 0 0 0 0
0 0 0 0 0 0 0 0 0 0 0 0 0 0 0 0 0 0 0 0 0 0 0 0 0 0 0 0 0 0 0 0 0 0 0 0 0 0 0 0 0 0 0
0 0 0 0 0 0 0 0 0 0 0 0 0 0 0 0 0 0 0 0 0 0 0 0 0 0 0 0 0 0 0 0 0 0 0 0 0 0 0 0 0 0 0
0 0 0 0 0 0 0 0 0 0 0 0 0 0 0 0 0 0 0 0 0 0 0 0 0 0 0 0 0 0 0 0 0 0 0 0 0 0 0 0 0 0 0
0 0 0 0 0 0 0 0 0 0 0 0 0 0 0 0 0 0 0 0 0 0 0 0 0 0 0 0 0 0 0 0 0 0 0 0 0 0 0 0 0 0 0
0 0 0 0 0 0 0 0 0 0 0 0 0 0 0 0 0 0 0 0 0 0 0 0 0 0 0 0 0 0 0 0 0 0 0 0 0 0 0 0 0 0 0
0 0 0 0 0 0 0 0 0 0 0 0 0 0 0 0 0 0 0 0 0 0 0 0 0 0 0 0 0 0 0 0 0 0 0 0 0 0 0 0 0 0 0
0 0 0 0 0 0 0 0 0 0 0 0 0 0 0 0 0 0 0 0 0 0 0 0 0 0 0 0 0 0 0 0 0 0 0 0 0 0 0 0 0 0 0
0 0 0 0 0 0 0 0 0 0 0 0 0 0 0 0 0 0 0 0 0 0 0 0 0 0 0 0 0 0 0 0 0 0 0 0 0 0 0 0 0 0 0
0 0 0 0 0 0 0 0 0 0 0 0 0 0 0 0 0 0 0 0 0 0 0 0 0 0 0 0 0 0 0 0 0 0 0 0 0 0 0 0 0 0 0
0 0 0 0 0 0 0 0 0 0 0 0 0 0 0 0 0 0 0 0 0 0 0 0 0 0 0 0 0 0 0 0 0 0 0 0 0 0 0 0 0 0 0
0 0 0 0 0 0 0 0 0 0 0 0 0 0 0 0 0 0 0 0 0 0 0 0 0 0 0 0 0 0 0 0 0 0 0 0 0 0 0 0 0 0 0
0 0 0 0 0 0 0 0 0 0 0 0 0 0 0 0 0 0 0 0 0 0 0 0 0 0 0 0 0 0 0 0 0 0 0 0 0 0 0 0 0 0 0
0 0 0 0 0 0 0 0 0 0 0 0 0 0 0 0 0 0 0 0 0 0 0 0 0 0 0 0 0 0 0 0 0 0 0 0 0 0 0 0 0 0 0
Wind_Speed
3 3 3 2 3 3 2 2 3 4 4 4 5 5 5 6 6 5 5 9 8 8 8 9 9 9 9 9 8 8 8 8 8 7 7 6 6 6 6 5 5 5 4
2 2 3 3 3 3 2 2 3 3 3 3 4 4 5 5 5 5 4 6 8 8 8 8 8 8 7 8 8 8 8 7 7 7 7 7 6 5 6 5 5 4 4
3 2 2 3 3 2 3 2 3 2 3 3 3 4 4 4 4 4 4 3 5 7 7 7 7 6 6 7 7 7 7 7 7 7 7 7 7 6 5 5 4 4 3
3 2 2 2 2 2 2 2 2 2 2 2 3 3 3 3 4 4 3 3 3 3 5 6 6 6 5 5 5 5 5 6 6 6 6 6 6 6 5 5 4 4 4
3 3 2 2 2 2 2 2 2 2 2 2 2 2 2 3 3 3 3 4 4 3 3 5 4 5 5 4 4 4 4 4 5 5 5 5 5 5 5 5 5 4 3
3 3 2 2 2 1 1 1 2 2 2 1 2 2 2 2 2 3 3 3 3 3 3 3 2 3 5 5 5 5 4 4 4 4 4 4 4 4 5 5 5 5 4
3 3 2 2 1 1 1 1 1 2 1 1 1 2 2 2 2 2 2 2 3 3 2 2 2 2 3 5 6 6 5 5 5 4 4 4 4 4 4 5 5 5 4
2 2 2 1 1 1 1 1 1 0 1 0 1 1 1 2 1 1 1 1 1 2 2 2 3 2 2 2 5 6 6 5 5 5 4 4 4 5 5 5 4 5 4
2 2 2 2 2 1 0 0 0 0 0 0 1 2 1 0 1 1 0 0 1 1 1 2 2 2 2 2 2 4 5 5 5 4 4 4 4 5 5 5 4 4 4
2 2 2 2 2 1 1 0 0 0 1 1 0 1 2 1 1 1 2 1 1 1 1 1 1 2 2 1 3 5 4 4 4 4 4 3 3 3 4 4 4 4 4
2 2 2 1 1 1 1 1 0 1 1 1 1 1 1 1 2 2 1 1 1 1 0 0 0 1 1 1 1 3 3 3 3 4 4 4 4 3 4 4 4 4 5
1 2 2 1 1 1 1 1 1 1 1 1 1 1 1 1 1 1 2 2 1 1 0 0 0 0 0 1 2 3 2 2 3 3 4 4 4 4 3 4 4 4 4
1 1 1 2 1 1 1 1 2 2 1 1 2 1 1 1 1 2 2 2 2 1 1 1 1 0 0 0 1 1 1 1 2 2 3 3 3 3 3 3 4 4 4
1 1 1 1 1 1 1 1 1 1 1 2 2 2 1 1 1 2 2 2 2 2 2 1 1 1 0 1 2 2 1 2 1 1 2 3 3 3 3 3 4 4 4
1 1 1 1 1 1 1 0 1 1 1 1 2 2 1 1 1 2 2 2 3 3 2 1 1 0 1 1 1 1 1 3 1 1 2 2 3 3 3 3 3 4 4
1 1 1 1 1 1 1 0 0 1 1 0 1 1 1 1 1 1 2 2 2 3 3 1 1 1 1 1 0 1 0 4 2 1 2 3 3 3 4 3 3 4 4
1 1 1 1 1 1 1 0 1 1 1 1 1 1 1 1 1 1 1 1 2 2 3 2 1 1 1 2 1 2 1 1 1 2 2 2 2 3 3 3 3 4 4
1 1 1 1 1 1 1 1 1 1 1 2 2 1 1 1 2 1 1 1 2 2 3 3 1 1 2 2 2 2 2 1 0 3 2 2 2 2 2 2 3 3 4
0 1 1 1 1 1 1 1 1 1 1 2 2 2 2 2 2 1 2 2 1 1 2 2 2 1 2 1 2 2 2 1 1 1 2 1 1 1 2 2 2 3 3
0 0 0 1 1 0 1 1 1 1 1 2 2 2 2 2 2 2 2 2 2 1 2 2 1 1 1 1 2 1 1 1 2 1 1 1 1 1 0 1 2 3 3
0 0 0 1 1 1 1 2 2 2 1 1 2 2 1 2 3 3 2 2 2 2 1 2 2 1 1 1 2 2 2 2 2 2 2 1 1 1 1 1 1 2 3
0 0 1 1 1 1 2 3 3 2 2 2 2 2 2 2 1 1 2 3 3 3 2 2 2 3 2 2 2 2 2 2 2 1 3 2 2 2 1 1 2 2 3
0 0 1 1 1 0 1 1 3 3 2 2 2 2 2 1 2 2 2 3 3 3 4 4 3 3 3 3 3 3 3 3 3 1 2 3 2 3 2 1 1 2 3
1 1 1 1 1 0 1 1 3 3 2 2 2 2 2 3 2 3 3 3 3 2 3 4 4 3 3 3 4 4 4 4 3 1 2 3 3 3 2 2 1 1 3
1 1 1 1 1 1 1 1 3 2 2 2 2 2 3 3 2 4 4 4 3 2 1 1 2 2 2 3 3 2 2 3 3 2 1 3 3 3 3 3 1 2 3
1 1 1 1 2 2 1 1 3 2 2 2 2 2 2 3 3 3 4 4 3 3 2 2 3 3 3 3 3 4 3 3 3 2 1 2 2 2 3 2 2 2 3
Wind_Direction
51 60 70 68 63 66 71 56 63 66 61 63 65 67 71 71 68 67 81 73 65 66 70 72 71 72 72 74 72 70 69 69 66 64 65 66 65 64 64 63 70 81 73
48 40 58 61 57 53 49 50 64 69 65 61 61 64 68 71 71 72 76 87 77 67 64 64 65 71 73 77 74 69 69 69 65 60 61 61 62 62 57 59 65 71 75
43 43 45 54 53 58 61 48 60 63 72 78 74 64 62 58 63 71 72 69 89 89 72 62 60 66 70 74 73 70 68 66 64 60 58 57 57 56 54 52 56 59 64
38 42 47 52 48 52 55 56 51 68 75 71 71 65 66 64 57 61 70 72 64 75 90 73 62 62 67 70 72 72 68 64 60 60 57 55 53 52 48 43 48 49 57
27 39 32 38 53 55 52 50 50 42 63 63 69 68 62 65 58 61 70 69 70 66 71 89 76 58 56 62 64 64 62 60 58 58 56 55 51 47 44 43 43 43 48
20 35 26 30 49 65 65 68 77 62 50 58 74 72 62 82 75 64 61 62 53 55 57 62 88 81 62 51 49 48 47 46 48 52 56 52 47 45 39 35 36 35 36
16 31 3 21 19 44 64 75 77 89 70 45 128 126 112 93 75 76 63 58 63 55 49 42 44 53 87 78 56 45 44 47 48 49 53 52 47 40 37 34 33 30 30
7 11 5 9 15 13 53 72 89 24 93 274 273 235 180 153 114 77 64 49 51 70 55 43 38 39 35 70 70 49 35 38 42 39 37 41 41 39 35 31 34 29 24
357 2 358 359 348 341 23 18 106 199 261 225 314 307 291 315 125 144 95 76 60 56 61 55 45 54 43 55 74 67 40 29 29 31 32 35 39 37 32 27 28 26 23
353 350 351 347 350 352 335 320 40 262 271 244 172 304 310 336 267 179 181 153 86 55 24 75 46 54 48 47 66 57 49 29 22 21 20 25 30 29 27 25 18 13 8
342 346 343 337 347 344 313 327 270 249 242 266 256 230 241 244 272 266 214 211 188 163 31 7 89 46 39 23 40 64 58 42 29 22 13 8 10 16 19 19 15 12 6
323 339 337 322 318 328 309 269 239 223 227 234 251 258 249 237 250 255 255 241 228 210 219 271 311 110 348 318 56 59 57 47 41 31 18 7 4 7 11 8 1 358 358
321 326 330 327 336 330 326 273 229 226 217 224 237 245 259 266 265 265 263 268 261 237 214 226 235 213 230 307 77 75 93 56 43 28 10 358 357 1 4 359 352 348 349
316 328 324 330 335 333 340 307 259 230 229 220 226 229 234 255 270 268 268 278 272 254 230 233 213 224 287 275 49 255 124 108 61 24 3 356 353 354 354 347 345 348 350
326 341 337 350 358 337 316 293 271 250 260 244 233 228 229 231 250 266 272 270 273 272 264 284 259 261 320 345 37 251 174 99 78 33 7 1 0 360 358 352 0 360 359
357 348 353 358 18 359 342 341 315 296 251 234 280 259 249 272 270 272 271 266 271 277 275 285 292 313 343 310 326 279 85 116 110 71 29 14 10 5 360 1 359 358 2
334 349 355 8 9 11 21 17 260 261 263 229 231 253 260 274 259 281 287 281 269 263 262 273 278 287 285 294 309 293 267 224 135 103 64 32 14 8 11 10 12 16 14
337 348 360 15 19 359 8 2 321 287 282 260 245 243 255 264 266 269 276 280 276 266 262 268 264 279 282 285 281 277 279 280 221 101 94 52 31 25 25 19 12 11 10
350 35 39 21 13 355 346 331 296 284 294 296 277 267 271 269 264 261 259 267 275 281 272 260 263 285 273 279 272 271 280 287 266 135 157 144 57 28 17 11 358 0 358
302 342 348 349 335 319 308 289 290 292 300 312 301 281 280 281 278 277 269 274 281 270 258 256 246 247 284 292 273 268 275 300 287 285 258 226 193 209 292 346 355 352 347
255 306 308 331 346 348 346 331 318 304 284 280 287 270 282 321 340 323 310 291 280 258 244 246 244 245 240 240 263 270 269 274 284 291 280 261 245 258 243 240 310 343 344
281 257 261 288 299 349 18 355 317 294 292 276 279 277 233 217 232 266 320 315 307 278 260 241 245 247 255 251 262 259 263 262 276 285 286 289 288 284 294 311 15 354 332
257 285 269 258 262 28 28 327 307 287 290 295 287 289 287 273 265 262 229 233 237 241 257 263 253 258 267 265 261 260 258 265 279 295 281 278 284 282 284 325 33 324 317
232 257 280 269 270 286 7 326 302 274 274 287 286 288 287 285 301 301 278 260 264 257 246 252 262 268 276 279 263 264 266 267 268 246 259 270 275 279 283 270 137 288 302
252 261 265 266 267 264 330 312 303 278 267 284 293 291 291 292 334 311 277 262 255 252 181 242 310 310 328 314 291 265 263 255 263 252 257 278 279 285 278 264 202 200 245
250 267 276 268 273 283 305 313 299 277 275 290 293 280 300 315 325 293 270 267 263 266 248 210 225 219 233 215 226 244 248 256 271 265 241 270 277 282 279 272 283 264 242